sat.trackr.live / text

‹ back to catalog

STARLINK-30256

NORAD 57522 · 2023-115B

PAYLOAD ACTIVE UNKNOWN

§ Identity

Operator
Country
US
Launch date
2023-08-08
Launch site
AFWTR
Launch vehicle
Mass (kg)
RCS (m²)

Purposes: comms

External: N2YO · Heavens-Above · Gunter

§ Orbital elements

Epoch: 2026-09-19T06:34:18.271776Z

Period
94.27 min
Inclination
43.0058°
Eccentricity
0.0001334
Mean motion
15.27577329 rev/d
Perigee alt
482.1 km
Apogee alt
484.0 km
Semi-major
6,861.2 km
B*
1.7177e-5
RAAN
348.6653°
Arg perigee
263.4620°
Mean anomaly
96.6080°
Rev number
17,195

§ Raw data

STARLINK-302561 57522U 23115B   26262.27382259  .00000210  00000+0  17177-4 0  99982 57522  43.0058 348.6653 0001334 263.4620  96.6080 15.27577329171952

JSON: /api/v1/satellites/57522 · /tle

For live sub-satellite position, see the globe view (requires WebGL).

§ Visibility from observer

Set your observer location to see the next 7 days of passes ≥ 10°. The values pass through the URL so the page stays shareable.

No JS? Fill the form by hand. The geolocation button needs JavaScript.